This is the latest recevied weather packets stored in our database for station/object K8RRT. If no packets are shown the sender has not sent any weather packets the latest 10 day(s).
| Time | Temp. | Humidity | Pressure | Rain* | Wind** | Luminosity | Snow |
|---|---|---|---|---|---|---|---|
| 1788128852 | 27.22° C | 87% | 1014.4 hPa | 0 mm | - | 87 W/m² | - |
| 1788128548 | 26.67° C | 87% | 1014.2 hPa | 0 mm | - | 90 W/m² | - |
| 1788128243 | 26.67° C | 88% | 1014.5 hPa | 0 mm | - | 100 W/m² | - |
| 1788127940 | 26.67° C | 89% | 1014.4 hPa | 0 mm | - | 109 W/m² | - |
| 1788127635 | 26.67° C | 89% | 1014.7 hPa | 0 mm | - | 127 W/m² | - |
| 1788127337 | 26.67° C | 91% | 1014.7 hPa | 0 mm | - | 109 W/m² | - |
| 1788127033 | 26.67° C | 90% | 1014.5 hPa | 0 mm | - | 82 W/m² | - |
| 1788126727 | 26.67° C | 89% | 1014.4 hPa | 0 mm | - | 78 W/m² | - |
| 1788126423 | 26.67° C | 89% | 1014.6 hPa | 0 mm | - | 77 W/m² | - |
| 1788126117 | 26.67° C | 88% | 1014.6 hPa | 0 mm | - | 66 W/m² | - |
| 1788125816 | 26.67° C | 86% | 1014.7 hPa | 0 mm | - | 72 W/m² | - |
| 1788125512 | 26.67° C | 85% | 1014.8 hPa | 0 mm | - | 80 W/m² | - |
| 1788125208 | 26.67° C | 84% | 1014.7 hPa | 0 mm | - | 101 W/m² | - |
| 1788124903 | 27.22° C | 83% | 1014.8 hPa | 0 mm | - | 110 W/m² | - |
| 1788124598 | 27.22° C | 84% | 1014.7 hPa | 0 mm | - | 114 W/m² | - |
| 1788124297 | 26.67° C | 84% | 1014.8 hPa | 0 mm | - | 97 W/m² | - |
| 1788123993 | 26.67° C | 82% | 1014.7 hPa | 0 mm | - | 98 W/m² | - |
| 1788123692 | 27.22° C | 84% | 1014.8 hPa | 0 mm | - | 114 W/m² | - |
| 1788123389 | 27.22° C | 82% | 1014.8 hPa | 0 mm | - | 126 W/m² | - |
| 1788123085 | 27.22° C | 84% | 1014.8 hPa | 0 mm | - | 150 W/m² | - |
| 1788122784 | 26.67° C | 84% | 1014.8 hPa | 0 mm | - | 192 W/m² | - |
| 1788122483 | 26.67° C | 86% | 1014.7 hPa | 0 mm | - | 310 W/m² | - |
| 1788122180 | 26.11° C | 89% | 1014.9 hPa | 0 mm | - | 336 W/m² | - |
| 1788121880 | 26.11° C | 89% | 1015.1 hPa | 0 mm | - | 191 W/m² | - |
| 1788121579 | 26.67° C | 88% | 1015.4 hPa | 0 mm | - | 183 W/m² | - |
* Rain latest hour (hover to see other rain measurements)
** Current wind speed in m/s (hover to see current wind gust speed)